Theta_e
323 318 315 309 299 295 292 297 305 305 307 312 316 322 320 321 322 321 344 348 357 358 362 366 366 366 365 365 364 363 362 362 362 361 361 361 362 363 362 362 362 363 363 362 361 361 358 356 354
325 323 312 304 294 289 293 303 303 308 312 315 316 318 323 327 337 339 346 355 356 357 359 364 367 365 365 364 363 362 362 362 362 361 361 361 362 362 362 362 362 363 361 360 360 359 357 355 353
327 323 309 297 291 291 292 303 307 311 314 313 314 320 321 333 340 341 352 355 356 353 359 364 366 365 365 364 363 362 362 362 361 361 361 361 362 361 361 362 361 361 359 358 357 356 355 353 352
315 313 311 292 289 293 297 302 306 307 311 314 316 314 330 342 343 351 357 357 352 352 361 364 365 365 364 364 363 362 362 361 361 361 361 361 361 360 361 361 361 360 358 355 354 354 354 353 352
313 304 296 290 292 296 301 302 303 304 307 311 313 314 324 340 350 358 357 357 351 356 360 363 365 364 364 364 363 362 362 361 361 361 361 361 361 360 361 361 360 360 359 355 354 355 354 354 353
303 301 291 292 295 299 301 304 304 303 305 307 310 314 325 336 345 356 358 356 355 356 359 362 365 364 363 362 362 361 360 360 360 360 360 361 360 361 361 361 360 359 358 357 354 353 352 352 352
299 298 293 294 296 298 302 305 303 303 304 305 307 310 327 333 339 352 357 357 357 357 356 360 361 363 363 362 361 360 360 360 359 359 359 359 360 360 360 360 359 359 358 356 354 353 351 350 350
300 297 294 298 297 297 304 306 305 303 305 309 310 307 319 333 341 341 356 356 355 355 354 356 359 359 359 359 361 360 359 359 358 359 359 359 359 359 359 357 358 358 358 356 355 354 352 351 350
302 295 292 295 297 299 304 302 308 311 308 310 309 310 334 339 342 340 350 353 354 354 351 354 355 356 356 358 359 360 360 359 359 359 359 356 352 353 356 355 358 358 357 356 355 353 352 351 351
295 291 293 300 301 299 302 303 305 305 306 307 309 313 336 336 336 338 343 348 351 348 347 350 350 350 354 357 355 355 356 355 354 354 353 348 345 346 350 352 357 357 357 356 355 353 352 351 343
294 292 297 299 301 302 300 300 304 302 301 304 305 308 320 330 334 335 341 347 348 347 347 346 346 343 347 352 351 352 351 350 348 349 348 343 343 343 346 348 351 349 354 347 349 349 347 344 340
290 297 298 298 300 299 298 301 300 301 301 307 308 311 310 310 320 333 335 344 348 346 346 345 344 341 345 347 345 345 344 343 342 345 343 341 342 339 345 345 345 344 343 343 341 341 341 339 340
294 297 299 299 298 297 300 299 299 300 305 307 308 310 311 308 309 312 328 340 349 347 346 344 343 341 344 340 342 342 340 341 340 343 339 340 343 338 344 346 344 342 341 340 338 339 340 341 339
297 298 299 298 297 297 296 298 299 302 305 305 307 306 310 311 309 308 317 324 347 348 346 345 344 346 342 339 343 342 342 341 343 343 339 341 343 340 342 341 339 341 340 340 338 338 340 337 343
300 294 297 298 297 296 298 294 295 301 304 303 304 306 308 310 312 308 311 320 328 350 348 347 346 346 343 342 344 344 343 343 345 344 342 344 344 342 340 337 338 338 338 337 343 343 345 345 346
295 294 287 294 297 299 296 289 297 300 300 300 303 305 306 307 309 311 315 315 342 350 348 349 352 348 348 345 346 346 345 346 348 347 345 347 346 344 341 337 338 338 342 346 348 345 342 339 336
291 286 287 291 297 297 293 290 298 301 299 299 300 303 305 306 308 310 315 315 321 349 350 349 350 351 347 347 350 349 347 346 347 348 345 347 345 344 339 339 341 347 346 346 344 337 338 333 331
287 288 291 291 295 294 292 292 298 299 299 299 299 301 303 305 306 309 314 315 323 351 350 347 346 351 350 353 351 350 348 347 349 347 346 347 343 346 343 349 347 346 343 341 340 336 333 330 329
295 292 291 295 298 294 292 292 295 298 299 297 299 300 302 304 307 309 314 315 322 352 352 349 344 350 353 350 346 347 345 349 349 348 347 347 345 345 342 349 345 343 340 338 337 336 331 330 331
295 292 291 295 296 295 294 294 296 298 299 299 298 299 301 303 305 309 309 316 317 350 351 351 352 351 351 351 349 347 346 346 347 348 347 348 347 346 344 345 342 340 337 333 331 331 328 330 331
293 291 291 291 295 296 293 291 293 298 300 301 301 300 301 303 304 307 308 311 316 342 349 349 350 349 351 351 351 347 346 348 345 346 347 348 348 347 343 343 339 335 332 330 330 329 328 325 328
289 297 295 294 291 285 293 282 291 294 296 299 300 300 300 302 305 307 308 309 314 328 351 349 350 349 350 351 349 345 343 342 344 345 345 343 343 342 342 339 335 332 331 329 329 332 328 326 322
293 298 295 294 291 287 288 284 289 293 293 296 298 300 300 302 305 306 309 310 316 331 350 350 349 350 350 349 347 345 344 345 345 342 338 337 338 340 340 336 334 332 331 330 328 325 323 321 317
299 295 294 292 288 281 288 287 286 290 293 296 299 300 301 302 304 307 309 312 318 333 350 350 350 350 350 349 346 345 344 345 345 338 336 335 337 337 337 334 332 330 328 327 326 322 318 318 315
296 290 281 280 277 279 289 286 288 295 298 298 298 300 301 303 303 306 308 310 318 345 347 349 348 347 347 345 345 345 346 347 343 339 336 336 334 334 332 331 327 326 325 324 319 317 316 316 315
292 291 282 277 277 279 291 283 287 298 300 301 302 301 302 302 303 306 306 308 332 345 347 348 346 345 345 344 344 343 345 344 344 339 336 337 334 330 326 324 324 324 320 319 318 317 317 316 316
292 287 294 286 288 283 285 290 295 299 299 299 299 301 301 302 304 305 306 312 341 346 348 347 346 345 345 344 343 342 343 343 340 336 335 332 330 327 323 322 320 319 319 317 317 317 316 315 314
294 295 285 287 279 277 282 285 288 293 295 299 299 298 299 302 305 306 305 308 341 345 348 348 346 343 344 343 344 342 338 338 337 334 329 326 325 323 320 318 317 316 316 316 316 315 315 313 313
290 288 290 289 285 280 277 281 294 294 297 298 300 300 300 303 302 306 307 308 340 344 345 347 343 341 340 342 340 336 335 334 331 326 324 323 321 319 317 316 316 316 317 315 313 313 314 312 311
292 289 290 284 284 285 285 285 298 297 298 301 303 302 304 307 307 308 308 309 337 341 345 342 342 340 341 339 335 334 331 328 325 323 321 320 318 316 316 316 316 316 315 313 313 313 313 311 310
Wind_Speed
6 6 2 2 3 2 6 9 9 18 16 10 8 9 10 10 8 7 10 14 21 15 14 15 19 19 18 18 18 18 18 18 17 17 16 15 13 16 14 13 12 13 12 12 11 10 8 7 6
5 5 2 3 4 4 7 12 17 19 21 20 8 8 13 9 10 14 12 20 21 16 12 14 20 19 19 18 18 18 19 19 18 17 15 15 12 15 13 13 11 11 12 11 10 8 7 6 6
2 4 1 5 4 10 6 10 15 17 21 15 4 6 7 15 15 6 19 22 19 16 11 14 20 20 19 19 18 17 18 19 18 18 16 15 13 13 13 13 11 10 11 9 9 7 6 5 5
3 1 5 2 10 9 17 14 20 22 22 18 10 5 6 10 12 15 22 20 19 15 13 15 19 20 18 19 18 19 19 18 17 17 16 16 14 11 12 13 10 10 9 8 7 6 5 4 3
3 3 4 5 12 11 14 13 15 27 20 17 10 1 6 7 25 28 26 20 20 15 14 13 18 20 21 19 20 20 20 19 18 17 16 14 14 13 10 12 9 10 9 8 6 5 5 3 2
3 3 2 12 15 14 11 19 18 18 18 17 6 4 4 9 23 23 24 22 20 17 15 13 16 18 19 19 18 18 18 18 18 16 15 14 13 12 11 11 9 9 8 7 5 4 3 2 1
5 4 7 10 13 15 12 13 12 15 17 18 6 6 6 7 11 23 21 22 21 17 16 13 11 15 18 18 18 19 18 17 16 15 14 14 13 12 11 10 9 8 7 7 5 4 4 4 5
4 3 8 11 13 17 15 15 9 8 17 10 2 7 5 6 9 10 23 22 20 17 16 15 12 10 11 13 18 18 18 17 16 15 14 14 13 12 11 10 9 8 7 6 6 6 7 8 9
6 9 11 12 14 12 16 15 16 12 9 17 10 5 12 11 10 7 19 22 18 15 15 16 14 12 9 12 14 15 19 17 16 14 14 12 6 7 9 8 10 9 8 8 8 9 9 10 9
6 6 9 8 11 12 15 15 17 16 18 17 18 5 15 12 10 8 14 20 20 18 17 15 16 14 13 10 11 10 10 8 8 8 8 6 7 6 9 9 13 11 10 10 11 10 11 9 4
9 13 12 15 18 17 18 20 16 13 16 10 18 23 8 12 11 10 11 21 23 20 15 17 17 14 14 12 8 4 5 6 5 8 7 6 6 6 4 4 5 4 9 4 6 5 5 5 5
5 12 15 13 14 13 13 12 18 11 18 14 19 20 19 9 7 12 11 17 23 22 21 19 18 13 12 9 8 9 5 5 4 6 8 5 4 5 6 4 5 5 4 6 5 4 5 7 8
8 11 14 10 9 8 11 12 13 21 20 16 21 20 19 8 7 5 8 14 24 23 22 22 20 14 13 12 9 9 5 6 5 6 6 5 4 6 5 5 5 5 4 5 5 5 6 7 7
9 15 18 11 11 8 9 13 7 21 18 17 18 18 17 13 9 1 9 10 17 24 26 24 22 18 17 11 12 10 8 7 6 6 6 7 5 5 4 4 5 5 4 4 4 4 5 4 2
13 14 15 14 9 9 9 14 18 16 14 16 18 18 18 15 12 6 7 7 10 13 14 20 16 19 18 15 12 9 9 9 7 7 7 7 5 6 5 3 2 2 3 4 2 3 4 5 5
13 12 8 12 9 14 9 13 16 17 20 17 16 18 17 16 9 9 6 8 8 24 18 21 19 21 18 15 11 9 9 8 8 7 5 7 6 7 4 3 3 3 3 3 5 4 5 5 5
7 12 13 19 15 17 9 13 16 18 17 19 16 16 15 17 16 10 8 7 3 26 24 12 16 10 18 15 9 10 12 8 6 9 6 7 7 6 4 2 2 5 5 5 4 5 4 4 4
13 7 12 17 13 5 7 7 12 8 17 22 19 16 13 17 20 11 11 7 10 14 23 15 15 16 21 16 14 8 8 6 6 8 6 7 5 6 5 4 6 6 6 5 5 5 6 3 2
9 19 20 21 17 4 7 7 10 14 14 10 18 17 15 15 20 15 9 8 9 11 19 25 18 12 15 11 13 7 9 4 7 8 8 7 5 6 6 4 6 7 6 5 6 3 4 4 3
19 18 24 22 15 14 12 15 14 17 16 13 8 12 17 15 13 18 11 7 8 14 12 13 18 16 9 10 7 5 6 3 6 7 6 6 7 6 6 6 5 6 6 6 5 4 2 2 2
16 16 15 18 15 16 12 14 11 12 12 17 16 11 11 17 20 19 19 10 8 14 16 11 10 16 4 14 6 6 4 7 5 6 5 5 8 8 9 7 8 8 5 4 3 3 3 1 2
14 13 19 17 15 13 3 16 16 11 14 13 15 16 14 14 12 20 22 15 9 11 17 17 13 10 11 12 9 12 10 9 6 7 6 8 11 10 9 9 8 9 5 5 3 4 4 4 5
20 16 9 13 12 12 9 6 29 5 15 20 17 17 19 17 16 17 21 22 11 13 17 17 16 15 16 16 11 12 4 10 7 10 14 11 9 10 9 8 7 7 5 5 6 6 6 5 3
18 18 11 12 7 12 9 8 27 13 17 16 16 16 18 18 20 19 15 20 16 14 18 19 20 17 16 16 18 14 11 15 13 11 11 8 7 7 8 9 8 6 6 6 5 6 7 6 5
10 5 3 3 3 13 2 8 17 9 19 20 18 20 16 20 20 19 17 18 17 20 19 18 19 16 13 13 13 12 13 13 18 15 12 11 7 5 7 8 7 5 6 6 7 6 6 4 5
14 3 5 6 5 4 2 9 13 16 23 21 24 19 21 21 19 21 11 8 20 24 21 21 20 17 17 12 15 16 16 9 9 14 12 11 8 8 8 7 6 7 6 6 6 4 3 6 6
2 3 4 7 9 9 9 16 17 6 7 18 16 20 18 13 17 17 10 9 23 23 24 22 22 20 20 16 11 15 13 11 13 16 14 12 12 9 7 6 6 6 6 7 6 5 5 6 6
10 5 4 3 6 6 6 8 3 6 6 12 15 11 9 15 17 17 8 9 17 21 21 22 23 23 21 16 14 10 14 17 16 16 15 15 13 11 8 6 6 6 6 6 6 6 5 8 5
5 6 6 8 8 5 3 5 1 6 7 9 15 9 5 16 9 15 15 11 20 20 19 21 19 22 18 16 16 18 16 17 16 15 15 17 13 10 8 5 5 5 6 7 7 8 7 8 7
17 16 13 6 5 1 1 9 12 4 7 8 16 4 6 17 21 21 24 14 21 21 22 20 19 19 17 20 19 19 18 17 18 16 17 16 11 9 7 6 6 6 7 7 8 7 7 7 6
Wind_Direction
302 273 239 329 47 141 235 244 247 270 282 255 286 133 162 142 164 206 225 177 135 143 145 140 135 135 131 126 124 122 119 115 113 110 109 107 105 103 100 102 105 108 108 110 110 108 99 91 84
329 294 247 268 151 225 253 240 252 256 259 278 294 45 67 95 98 122 126 135 141 137 141 143 138 138 134 131 127 126 123 121 119 116 115 115 114 110 108 105 105 107 113 112 111 114 114 103 86
259 249 91 169 214 220 239 250 252 256 262 272 237 107 104 114 107 116 135 136 132 133 135 144 139 138 138 130 129 127 125 125 125 124 125 123 123 119 115 110 112 113 114 119 124 116 99 93 89
245 243 295 212 242 239 230 252 272 282 295 304 301 128 73 122 129 126 124 130 129 134 132 141 138 135 132 134 132 131 128 128 128 129 132 130 128 126 124 118 119 117 119 115 108 105 105 100 93
229 284 227 230 248 262 269 258 259 274 278 285 296 229 87 81 121 130 135 137 136 127 132 137 136 136 139 139 138 135 132 132 131 133 134 134 134 135 131 119 125 123 120 116 113 105 96 87 74
291 180 266 231 251 259 253 256 260 271 283 293 306 233 135 141 135 141 139 139 139 131 132 135 137 138 137 138 135 132 131 134 135 136 136 137 139 136 128 129 136 130 126 124 119 109 106 117 195
204 269 237 260 272 278 260 261 263 256 272 278 279 268 156 127 144 142 143 139 135 136 134 129 134 135 135 134 133 132 132 132 133 135 138 138 142 139 137 141 142 133 132 131 137 150 174 206 227
262 234 266 257 253 264 275 280 265 292 281 267 222 289 160 163 137 131 138 135 133 134 136 132 131 131 134 133 132 134 134 134 135 138 141 143 147 146 146 151 147 144 150 159 174 200 211 227 235
257 247 250 256 264 280 291 299 300 317 316 318 263 222 143 137 118 119 135 128 132 137 145 138 137 137 133 129 135 133 136 135 136 141 148 143 148 153 157 171 164 169 178 183 200 218 229 237 246
219 257 251 260 270 278 289 298 309 333 327 325 342 150 139 129 131 151 146 141 141 148 150 145 141 148 146 142 135 136 139 140 141 142 161 161 164 175 177 185 176 182 192 200 215 225 236 246 241
240 243 259 272 280 283 292 303 307 319 304 320 327 316 149 140 152 161 161 152 149 150 150 155 150 154 151 141 132 136 147 146 146 157 174 188 178 178 178 165 181 184 205 208 227 234 238 245 233
274 246 241 248 251 277 286 304 298 300 290 311 311 315 292 158 183 175 176 161 149 155 158 155 151 151 146 141 146 141 163 152 153 173 186 188 184 171 176 172 189 193 206 207 224 208 226 240 250
329 315 315 302 300 277 292 285 291 292 296 308 306 315 312 323 192 251 213 170 158 159 161 156 154 154 149 150 151 139 165 153 168 171 192 189 190 183 169 187 193 203 203 197 221 208 216 241 244
294 295 296 302 306 302 306 304 302 285 294 295 298 304 308 322 316 226 250 178 165 169 163 160 154 145 153 158 152 153 154 164 166 173 193 201 188 173 180 180 177 204 202 223 220 222 211 237 16
318 313 303 288 263 275 287 287 279 284 291 292 289 294 299 304 321 325 330 270 157 155 160 150 147 142 145 151 153 158 165 168 162 178 191 205 166 182 182 183 252 246 246 183 184 352 39 50 38
291 286 288 282 281 266 223 257 260 273 283 281 282 281 289 297 304 315 344 358 97 126 153 168 152 153 140 154 161 164 169 175 166 170 178 180 171 179 166 169 225 247 16 45 65 49 63 61 37
252 253 250 270 242 244 223 255 248 247 257 270 270 272 272 287 297 304 299 314 12 142 152 138 147 143 142 151 151 167 170 173 150 158 171 176 171 182 167 161 281 80 70 57 65 50 72 48 18
271 301 300 275 273 272 285 290 293 306 236 248 254 258 260 264 273 282 285 276 98 174 143 178 158 179 156 156 152 151 163 164 148 154 168 172 166 174 125 97 98 91 75 59 50 65 52 74 4
298 308 287 289 292 242 238 279 281 286 294 288 252 248 248 249 257 266 271 250 111 174 154 179 183 186 155 155 147 140 165 160 143 159 157 158 145 161 108 102 88 83 83 73 48 56 54 8 1
279 240 265 280 281 287 296 239 259 268 263 268 249 261 252 245 266 257 252 246 159 161 183 181 154 154 199 132 141 124 138 117 124 142 132 132 125 122 107 112 97 96 86 79 66 54 43 5 3
255 259 278 274 284 288 305 288 252 253 243 266 265 259 258 237 232 257 243 235 179 166 165 183 178 155 165 139 147 100 111 113 107 113 113 111 99 77 90 99 88 83 93 92 95 76 91 79 4
278 272 263 270 304 279 71 285 275 255 276 271 264 253 250 250 240 226 242 225 195 173 159 159 171 168 148 166 163 144 181 142 137 129 95 85 96 92 88 92 107 103 102 99 79 54 36 51 35
274 281 305 288 271 291 241 258 269 230 249 246 250 248 243 241 244 232 221 224 209 161 160 149 155 169 175 188 164 149 195 125 120 100 96 88 79 92 95 89 75 81 76 78 78 66 55 66 81
265 265 247 263 266 262 267 244 270 250 253 259 254 249 245 244 243 237 218 206 195 166 158 157 161 171 180 182 160 160 129 133 123 121 111 107 100 95 82 84 83 76 79 75 78 75 64 70 64
305 66 297 270 212 250 272 244 261 279 269 257 248 249 248 242 236 247 219 202 185 161 165 162 162 162 169 172 163 123 133 124 129 130 119 122 113 94 92 92 85 83 85 86 79 75 70 71 73
311 194 226 254 212 264 331 233 250 233 251 260 248 249 240 256 223 241 209 200 169 163 166 165 161 161 158 162 147 150 159 141 152 131 121 110 105 105 93 87 92 94 95 89 83 80 81 65 74
235 293 209 274 248 263 237 262 282 310 291 308 242 243 227 256 221 223 196 148 170 165 168 167 161 167 162 157 137 142 147 122 127 111 109 110 108 102 90 85 91 87 93 102 98 84 71 71 69
208 269 263 212 275 222 240 269 201 288 343 342 321 270 236 256 246 225 204 150 174 170 169 168 170 162 161 161 132 120 115 120 118 110 115 108 104 106 99 98 92 95 94 103 87 74 66 65 49
257 229 256 261 237 268 297 253 112 330 354 313 316 254 295 300 303 225 223 188 179 173 175 171 165 160 164 149 123 123 122 121 113 115 117 116 108 111 106 124 133 123 96 85 84 74 69 67 61
265 275 253 256 245 209 224 253 240 268 314 346 328 281 22 331 333 231 228 196 181 178 176 167 151 158 143 125 135 128 121 124 114 114 112 100 125 103 128 145 112 96 90 82 82 84 77 80 64